Weather History for Macon, GA

Change the Weather History Date:

Monday, March 17, 2014

  Actual Average Record
Temperature  
Mean Temperature 50 °F 57 °F  
Max Temperature 60 °F 70 °F 88 °F (1945)
Min Temperature 40 °F 44 °F 27 °F (1988)
Degree Days  
Heating Degree Days 15 8  
Month to date heating degree days 219 174  
Since 1 July heating degree days 2352 2099  
Cooling Degree Days 0 1  
Month to date cooling degree days 0 6  
Year to date cooling degree days 1 9  
Moisture  
Dew Point 51 °F    
Average Humidity 97    
Maximum Humidity 100    
Minimum Humidity 93    
Precipitation  
Precipitation 0.41 in 0.14 in 2.57 in (1920)
Month to date precipitation 2.78 2.60  
Year to date precipitation 10.61 11.20  
Snow  
Snow 0.00 in 0.00 in 0.00 in (2002)
Month to date snowfall 0.0 0.1  
Since 1 July snowfall 2.1 0.6  
Snow Depth 0.00 in    
Sea Level Pressure  
Sea Level Pressure 29.72 in    
Wind  
Wind Speed 7 mph (ENE)    
Max Wind Speed 18 mph    
Max Gust Speed 22 mph    
Visibility 8 miles    
Events Rain    
T = Trace of Precipitation, MM = Missing Value Source: NWS Daily Summary

Daily Weather History Graph

Daily Weather History Graph

Search for Another Location

Airport:

Trip Planner

Search our weather history database for the weather conditions in past years. The results will help you decide how hot, cold, wet, or windy it might be!

Date:

Astronomy

Mar. 17, 2014 Rise Set
Actual Time 7:42 AM EDT 7:44 PM EDT
Civil Twilight 7:17 AM EDT 8:08 PM EDT
Nautical Twilight 6:49 AM EDT 8:37 PM EDT
Astronomical Twilight 6:20 AM EDT 9:06 PM EDT
Moon 8:54 PM EDT (3/17) 8:01 AM EDT (3/17)
Length of Visible Light 12h 50m
Length of Day
12h 01m
Full, 99% of the Moon is Illuminated
Mar 17
Full
Mar 23
Last Quarter
Mar 30
New
Apr 7
First Quarter
Apr 15
Full

Hourly Weather History & Observations

Time (EDT) Temp. Windchill Dew Point Humidity Pressure Visibility Wind Dir Wind Speed Gust Speed Precip Events Conditions
12:53 AM 57.0 °F - 55.0 °F 93% 29.72 in 10.0 mi South 3.5 mph - N/A   Partly Cloudy
1:53 AM 57.0 °F - 55.0 °F 93% 29.72 in 10.0 mi West 4.6 mph - N/A   Overcast
1:59 AM 57.2 °F - 55.4 °F 94% 29.72 in 10.0 mi West 3.5 mph - N/A   Overcast
2:53 AM 57.0 °F - 55.0 °F 93% 29.70 in 10.0 mi Calm Calm - N/A   Overcast
3:53 AM 57.0 °F - 55.0 °F 93% 29.69 in 10.0 mi Calm Calm - N/A   Overcast
4:53 AM 57.0 °F - 55.0 °F 93% 29.68 in 10.0 mi SW 4.6 mph - N/A   Overcast
5:44 AM 57.2 °F - 55.4 °F 94% 29.69 in 10.0 mi Calm Calm - 0.00 in   Overcast
5:51 AM 57.2 °F - 55.4 °F 94% 29.68 in 10.0 mi Calm Calm - 0.00 in   Overcast
5:53 AM 57.0 °F - 55.9 °F 96% 29.67 in 10.0 mi Calm Calm - 0.00 in   Overcast
6:06 AM 57.2 °F - 55.4 °F 94% 29.67 in 10.0 mi Calm Calm - N/A   Overcast
6:13 AM 57.2 °F - 55.4 °F 94% 29.67 in 10.0 mi SSW 3.5 mph - N/A   Overcast
6:51 AM 55.4 °F - 55.4 °F 100% 29.65 in 10.0 mi Calm Calm - N/A   Overcast
6:53 AM 55.9 °F - 55.9 °F 100% 29.64 in 10.0 mi Calm Calm - N/A   Overcast
7:53 AM 57.0 °F - 55.9 °F 96% 29.66 in 10.0 mi East 3.5 mph - N/A   Overcast
8:14 AM 57.2 °F - 55.4 °F 94% 29.68 in 10.0 mi Calm Calm - N/A   Overcast
8:53 AM 57.0 °F - 55.9 °F 96% 29.69 in 10.0 mi Calm Calm - N/A   Overcast
9:53 AM 57.0 °F - 57.0 °F 100% 29.73 in 10.0 mi SE 4.6 mph - N/A   Overcast
10:53 AM 57.0 °F - 55.9 °F 96% 29.73 in 7.0 mi SSE 5.8 mph - 0.00 in Rain Light Rain
11:53 AM 57.9 °F - 57.0 °F 97% 29.73 in 10.0 mi South 3.5 mph - 0.02 in Rain Light Rain
12:53 PM 59.0 °F - 57.9 °F 96% 29.73 in 10.0 mi South 8.1 mph - 0.02 in Rain Light Rain
1:28 PM 59.0 °F - 57.2 °F 94% 29.73 in 2.5 mi South 4.6 mph - 0.02 in Rain Rain
1:44 PM 59.0 °F - 57.2 °F 94% 29.74 in 10.0 mi WSW 4.6 mph - 0.06 in Rain Light Rain
1:53 PM 59.0 °F - 57.9 °F 96% 29.73 in 5.0 mi SSW 4.6 mph - 0.06 in Rain Light Rain
2:23 PM 59.0 °F - 57.2 °F 94% 29.70 in 10.0 mi Calm Calm - 0.03 in Rain Light Rain
2:53 PM 55.9 °F - 55.0 °F 97% 29.68 in 10.0 mi NNE 15.0 mph - 0.03 in Rain Light Rain
3:05 PM 51.8 °F - 51.8 °F 100% 29.68 in 3.0 mi NNE 18.4 mph - 0.04 in Rain Heavy Rain
3:13 PM 51.8 °F - 51.8 °F 100% 29.68 in 2.5 mi NNE 15.0 mph - 0.10 in Rain Rain
3:20 PM 51.8 °F - 50.0 °F 94% 29.70 in 6.0 mi NNE 13.8 mph - 0.11 in Rain Light Rain
3:53 PM 50.0 °F - 50.0 °F 100% 29.68 in 10.0 mi NNE 11.5 mph - 0.15 in Rain Light Rain
4:30 PM 48.2 °F - 48.2 °F 100% 29.71 in 1.8 mi NE 9.2 mph - 0.02 in Rain Rain
4:39 PM 48.2 °F - 48.2 °F 100% 29.70 in 3.0 mi ENE 15.0 mph 20.7 mph 0.06 in Rain Light Rain
4:51 PM 48.2 °F - 48.2 °F 100% 29.70 in 7.0 mi NE 11.5 mph - 0.06 in Rain Light Rain
4:53 PM 48.9 °F - 48.0 °F 97% 29.70 in 7.0 mi ENE 11.5 mph - 0.06 in Rain Light Rain
5:08 PM 48.2 °F - 48.2 °F 100% 29.71 in 10.0 mi NE 8.1 mph - 0.00 in   Overcast
5:19 PM 48.2 °F - 48.2 °F 100% 29.71 in 10.0 mi NE 11.5 mph - 0.00 in   Overcast
5:53 PM 48.0 °F - 46.9 °F 96% 29.72 in 4.0 mi NNE 6.9 mph - 0.00 in Rain Light Rain
6:32 PM 46.4 °F 40.4 °F 44.6 °F 93% 29.73 in 10.0 mi ENE 13.8 mph - 0.01 in   Overcast
6:43 PM 46.4 °F 41.5 °F 44.6 °F 93% 29.74 in 10.0 mi ENE 10.4 mph - 0.01 in   Overcast
6:53 PM 46.0 °F 41.4 °F 45.0 °F 96% 29.74 in 10.0 mi ENE 9.2 mph - 0.01 in   Overcast
6:58 PM 46.4 °F 42.4 °F 44.6 °F 93% 29.74 in 10.0 mi NE 8.1 mph - N/A   Overcast
7:53 PM 45.0 °F 40.1 °F 44.1 °F 97% 29.76 in 9.0 mi NE 9.2 mph - N/A   Overcast
8:53 PM 44.1 °F 37.4 °F 42.1 °F 93% 29.78 in 3.0 mi ENE 13.8 mph - 0.00 in Rain Rain
9:00 PM 42.8 °F 36.2 °F 42.8 °F 100% 29.78 in 2.5 mi ENE 12.7 mph - 0.01 in Rain Light Rain
9:12 PM 42.8 °F 37.0 °F 42.8 °F 100% 29.79 in 5.0 mi NE 10.4 mph - 0.02 in Rain Light Rain
9:53 PM 43.0 °F 37.2 °F 43.0 °F 100% 29.82 in 4.0 mi NNE 10.4 mph - 0.03 in Rain Light Rain
10:53 PM 42.1 °F 35.2 °F 41.0 °F 96% 29.84 in 10.0 mi NNE 12.7 mph - 0.03 in   Overcast
11:24 PM 42.8 °F 37.5 °F 41.0 °F 93% 29.84 in 10.0 mi NE 9.2 mph - N/A   Overcast
11:38 PM 41.0 °F 34.3 °F 39.2 °F 93% 29.85 in 10.0 mi NNE 11.5 mph - N/A   Overcast
11:53 PM 41.0 °F 35.8 °F 39.9 °F 96% 29.85 in 10.0 mi NE 8.1 mph - N/A   Overcast